JA3VQW-13 Hirakata JP current weather conditions

sailwx.info

Wind from 258 at 46 knots gusting 7

Air temperature 27.2° C
Dewpoint -4.7° C

Last reported at 2018-Apr-21 07:02 UTC.
Time now 2018-Apr-21 08:05 UTC

Location: N 34°48' E 135°40'.
View on Google Maps.

See reports from other nearby stations

  
Tides and Currents Weather Stations Pressure Air Temp Water Temp Dewpoint Dewpoint Depression Visibility Wind Speed Wind Dir Waves Ship Positions
date/time (UTC)wind fromknots sea level pressurealtimeterstation pressurevisibilityair tempwater tempwave heightnotes
2018-Apr-21 07:02 258 46 gusting 7 27.2
2018-Apr-21 06:40 247 46 gusting 7 27.2
2018-Apr-21 06:32 273 46 gusting 7 27.2
2018-Apr-21 06:02 191 46 gusting 4 27.8
2018-Apr-21 05:32 253 46 gusting 6 27.8
2018-Apr-21 05:10 315 46 gusting 5 28.3
2018-Apr-21 05:02 263 46 gusting 6 28.3
2018-Apr-21 04:55 279 46 gusting 5 28.3
2018-Apr-21 04:32 268 46 gusting 6 28.3
2018-Apr-21 04:02 177 46 gusting 5 27.8
2018-Apr-21 03:32 225 46 28.3
2018-Apr-21 03:02 250 46 gusting 1 27.2
2018-Apr-21 02:32 225 46 26.7
2018-Apr-21 02:02 315 46 24.4
2018-Apr-21 01:32 135 46 gusting 4 23.9
2018-Apr-21 01:02 270 46 22.8
2018-Apr-21 00:32 225 46 21.7
2018-Apr-21 00:25 180 46 21.7
2018-Apr-21 00:02 270 46 21.1
2018-Apr-20 23:32 270 46 20.0
2018-Apr-20 23:02 248 46 18.9
2018-Apr-20 22:32 248 46 17.2
2018-Apr-20 22:25 248 46 16.7
2018-Apr-20 22:10 248 46 16.1
2018-Apr-20 22:02 248 46 16.1
2018-Apr-20 21:55 248 46 15.6
2018-Apr-20 21:32 248 46 15.0
2018-Apr-20 21:02 225 46 14.4
2018-Apr-20 20:32 225 46 14.4
2018-Apr-20 20:02 225 46 14.4
2018-Apr-20 19:55 225 46 14.4
2018-Apr-20 19:40 225 46 14.4
2018-Apr-20 19:32 225 46 15.0
2018-Apr-20 19:25 225 46 15.0
2018-Apr-20 19:10 225 46 15.0
2018-Apr-20 19:02 225 46 15.0
2018-Apr-20 18:55 225 46 15.0
2018-Apr-20 18:40 225 46 15.0
2018-Apr-20 18:32 225 46 15.6
2018-Apr-20 18:25 225 46 15.6
2018-Apr-20 18:02 225 46 15.6
2018-Apr-20 17:40 225 46 15.6
2018-Apr-20 17:32 225 46 15.6
2018-Apr-20 17:25 225 46 15.6
2018-Apr-20 17:10 225 46 15.6
2018-Apr-20 17:02 225 46 15.6
2018-Apr-20 16:55 225 46 15.6
2018-Apr-20 16:40 225 46 15.6
2018-Apr-20 16:32 225 46 15.6
2018-Apr-20 16:02 225 46 16.1
2018-Apr-20 15:55 225 46 16.7
2018-Apr-20 15:40 225 46 16.7
2018-Apr-20 15:32 180 46 17.2
2018-Apr-20 15:10 135 46 17.2
2018-Apr-20 15:02 135 46 17.2
2018-Apr-20 14:32 135 46 17.8
2018-Apr-20 14:10 135 46 18.3
2018-Apr-20 14:02 138 46 18.3
2018-Apr-20 13:32 225 46 18.9
2018-Apr-20 13:10 225 46 19.4
2018-Apr-20 13:02 225 46 19.4
2018-Apr-20 12:40 225 46 19.4
2018-Apr-20 12:32 225 46 19.4
2018-Apr-20 12:02 090 46 20.6
2018-Apr-20 11:32 292 46 21.1
2018-Apr-20 11:02 292 46 21.7
2018-Apr-20 10:32 292 46 22.8
2018-Apr-20 10:25 292 46 22.8
2018-Apr-20 10:02 292 46 23.3
2018-Apr-20 09:32 306 46 25.6
2018-Apr-20 09:02 315 46 27.8
2018-Apr-20 08:32 270 46 28.9
2018-Apr-20 08:02 270 46 29.4
2018-Apr-20 07:32 146 46 gusting 1 29.4
2018-Apr-20 07:02 312 46 gusting 6 30.0
2018-Apr-20 06:32 233 46 gusting 2 30.6
2018-Apr-20 06:02 297 46 gusting 2 30.6
2018-Apr-20 05:32 217 46 30.6
2018-Apr-20 05:02 292 46 31.1
2018-Apr-20 04:32 270 46 28.9
2018-Apr-20 04:02 281 46 gusting 1 28.3
2018-Apr-20 03:32 225 46 27.8
2018-Apr-20 03:02 225 46 27.2
2018-Apr-20 02:32 315 46 gusting 1 24.4
2018-Apr-20 02:02 084 46 22.8
2018-Apr-20 01:32 315 46 21.7
2018-Apr-20 01:02 315 46 20.0
2018-Apr-20 00:32 248 46 19.4
2018-Apr-20 00:02 090 46 18.9
2018-Apr-19 23:32 248 46 17.8
2018-Apr-19 23:02 248 46 16.7
2018-Apr-19 22:55 225 46 16.1
2018-Apr-19 22:32 225 46 15.6
2018-Apr-19 22:02 225 46 14.4
2018-Apr-19 21:55 180 46 14.4
2018-Apr-19 21:32 180 46 14.4
2018-Apr-19 21:10 180 46 13.9
2018-Apr-19 21:02 180 46 13.9
2018-Apr-19 20:32 112 46 13.9
2018-Apr-19 20:25 112 46 13.9
2018-Apr-19 20:02 112 46 13.9
2018-Apr-19 19:32 112 46 14.4
2018-Apr-19 19:02 112 46 14.4
2018-Apr-19 18:32 112 46 15.0
2018-Apr-19 18:02 112 46 15.0
2018-Apr-19 17:32 112 46 15.0
2018-Apr-19 17:10 135 46 15.0
2018-Apr-19 17:02 135 46 15.0
2018-Apr-19 16:32 135 46 15.6
2018-Apr-19 16:25 135 46 15.6
2018-Apr-19 16:02 135 46 15.6
2018-Apr-19 15:40 135 46 16.1
2018-Apr-19 15:32 135 46 16.1
2018-Apr-19 15:25 135 46 16.1
2018-Apr-19 15:02 135 46 16.1
2018-Apr-19 14:32 135 46 16.7
2018-Apr-19 14:02 180 46 16.7
2018-Apr-19 13:32 180 46 17.2
2018-Apr-19 13:02 180 46 17.8
2018-Apr-19 12:32 225 46 17.8
2018-Apr-19 12:10 133 46 18.3
2018-Apr-19 12:02 221 46 18.3
2018-Apr-19 11:32 237 46 gusting 1 18.3
2018-Apr-19 11:02 285 46 gusting 2 18.9
2018-Apr-19 10:32 260 46 gusting 4 18.9
2018-Apr-19 10:02 085 46 gusting 1 19.4
2018-Apr-19 09:32 311 46 gusting 1 20.0
2018-Apr-19 09:02 245 46 gusting 4 21.7
2018-Apr-19 08:32 315 46 23.9
2018-Apr-19 08:02 261 46 gusting 4 23.9